sat.trackr.live / text

‹ back to catalog

STARLINK-4590

NORAD 53606 · 2022-104U

PAYLOAD ACTIVE UNKNOWN

§ Identity

Operator
Country
US
Launch date
2022-08-28
Launch site
AFETR
Launch vehicle
Mass (kg)
RCS (m²)

Purposes: comms

External: N2YO · Heavens-Above · Gunter

§ Orbital elements

Epoch: 2026-05-24T16:02:47.240448Z

Period
95.44 min
Inclination
53.2154°
Eccentricity
0.0001192
Mean motion
15.08836798 rev/d
Perigee alt
538.9 km
Apogee alt
540.6 km
Semi-major
6,917.9 km
B*
3.6455e-5
RAAN
253.1499°
Arg perigee
87.0497°
Mean anomaly
273.0632°
Rev number
20,710

§ Raw data

STARLINK-45901 53606U 22104U   26144.66860232  .00000292  00000+0  36455-4 0  99982 53606  53.2154 253.1499 0001192  87.0497 273.0632 15.08836798207101

JSON: /api/v1/satellites/53606 · /tle

For live sub-satellite position, see the globe view (requires WebGL).

§ Visibility from observer

Set your observer location to see the next 7 days of passes ≥ 10°. The values pass through the URL so the page stays shareable.

No JS? Fill the form by hand. The geolocation button needs JavaScript.